Камо

Армения     40°08′49″N   45°18′38″E
темп.,
°C
ветер,
м/с
пор.,
м/с
влажн.,
%
обл.,
%
осадки,
мм/ч
давл.,
гПа
погр.,
м
12 мая, ср
ср1201:00+10всв11630 0.0 1013190
04:00+10в01620 0.0 1013180
07:00+10ююз11580 0.0 1014165
10:00+13в23470 0.0 1013330
13:00+16ю36400 0.0 1012446
16:00+17юз45418 0.0 1012460
19:00+16ююз11525 0.0 101210
22:00+13з335160 0.0 101580
13 мая, чт
чт1301:00+13з224798 0.0 1015106
04:00+13юз124437 0.0 101582
07:00+13зюз11464 0.0 1016100
10:00+14в12434 0.0 1016275
13:00+17вюв234124 0.0 1015506
16:00+17ссв444266 0.0 1014206
19:00+16всв466599 0.4 1016133
22:00+14ююз336890 0.6 101890
14 мая, пт
пт1401:00+13юв115985 0.1 1017114
04:00+13ссз115851 0.2 1017121
07:00+12в11605 0.0 1018159
10:00+13св115695 0.1 1018176
13:00+13вюв125724 0.4 1018227
16:00+11вюв7781100 1.8 1019337
19:00+11зсз337586 1.2 1019136
22:00+12ссв116435 1.2 1019235
15 мая, сб
сб1501:00+11з017092 0.0 1018199
04:00+11вюв01737 0.0 1018307
07:00+11всв01740 0.0 1018257
10:00+11всв11700 0.1 1018208
13:00+13св12500 0.4 1016239
16:00+15вюв33498 0.6 1015405
19:00+13всв44665 0.1 1015292
22:00+13сз116323 0.1 101695
16 мая, вс
вс1601:00+11св22751 0.1 1016287
04:00+11юв11740 0.1 1015286
07:00+11в12710 0.0 1015271
10:00+12всв21670 0.0 1014226
13:00+14всв225613 0.1 1012272
16:00+16св335162 0.2 1010303
19:00+15юв115595 0.1 101080
22:00+14всв3364100 0.1 1012272